カタログに戻る

STARLINK-34831

運用中通信VLEO
NORAD 65345·PAYLOAD·🇺🇸 United States

打ち上げ Aug 27, 2025 から Cape Canaveral Space Force Station

Loading…

次のパス (今後24時間)

TLE

最新Source: CelesTrak SupGP

元期: Sep 14, 2026, 21:44 UTC

1 65345C 25189Y   26257.90604167  .00035674  00000+0  11476-2 0  2575
2 65345  53.1590  46.5392 0001116  76.4073 337.9855 15.31672725    13

AllMySatでSTARLINK-34831をリアルタイム追跡

Download on the App Store